Location: Unspecified
(47.8330°N, 0.0000°E)
Time: 03:31:38
(UTC+00:00)

VELOX 1 - Pass Details

Date: 01 September 2019
Orbit: 629 x 643 km, 98.2° (Epoch: 21 September)

Event Time Altitude Azimuth Distance (km) Brightness Sun altitude
Exits shadow 02:31:57 12° 309° (NW) 1,903 ? -24.5°
Drops below altitude 10° 02:32:24 10° 314° (NW) 2,026 ? -24.5°
Sets 02:35:12 0° 332° (NNW) 2,943 ? -24.2°
